Tracking 28790 objects as of 19-Apr-2024
HD Live streaming from Space Station
objects crossing your sky now

DELTA 1 DEB

Track DELTA 1 DEB now!
10-day predictions


NORAD ID: 7141
Int'l Code: 1973-086DF
Perigee: 1,496.8 km
Apogee: 1,526.3 km
Inclination: 102.1 °
Period: 116.1 minutes
Semi major axis: 7882 km
RCS: 0.0598 m2 (small)
Launch date: November 6, 1973
Source: United States (US)
Launch site: AIR FORCE WESTERN TEST RANGE (AFWTR)

Note: This is SATELLITE DEBRIS
Your satellite tracking list
Your tracking list is empty




NASA's NSSDC Master Catalog

Two Line Element Set (TLE):
1 07141U 73086DF  24109.06016125  .00000216  00000-0  19448-2 0  9991
2 07141 102.1190 153.6241 0018719 337.9359  49.9506 12.40521084277057
Source of the keplerian elements: AFSPC